When you browse on this site, cookies collect data to enhance your experience and personalize the content and advertising you see.
Visit our Privacy Policy to learn more. By continuing to use the site, you agree to this use of cookies and data.
  • In Latvia
  • List of Countries
  • For 7 days
  • Water Temperature
  • Satellite Maps
  • Weather Map
  • Weather Widgets
  • user-avatar
    Login

    Hourly Weather Etchmiadzin

    Today, 18 June, Tuesday

    Time Temperature Precipitation Wind Pressure Humidity
    00:00 +21°C° 0.5 mm 1 mps 685 mmHg 68%
    01:00 +21°C° 0.1 mm 1 mps 684 mmHg 68%
    02:00 +20°C° 0.1 mm 1 mps 684 mmHg 69%
    03:00 +20°C° 0.1 mm 1 mps 684 mmHg 70%
    04:00 +21°C° 0 mm 1 mps 684 mmHg 68%
    05:00 +21°C° 0 mm 1 mps 684 mmHg 65%
    06:00 +22°C° 0 mm 1 mps 684 mmHg 63%
    07:00 +24°C° 0 mm 1 mps 685 mmHg 57%
    08:00 +26°C° 0 mm 1 mps 685 mmHg 51%
    09:00 +28°C° 0 mm 1 mps 685 mmHg 45%
    10:00 +29°C° 0 mm 1 mps 685 mmHg 40%
    11:00 +31°C° 0 mm 1 mps 685 mmHg 34%
    12:00 +32°C° 0 mm 1 mps 685 mmHg 29%
    13:00 +33°C° 0 mm 1 mps 684 mmHg 28%
    14:00 +33°C° 0 mm 1 mps 684 mmHg 26%
    15:00 +33°C° 0 mm 1 mps 684 mmHg 25%
    16:00 +34°C° 0 mm 2 mps 684 mmHg 27%
    17:00 +32°C° 0 mm 2 mps 684 mmHg 30%
    18:00 +31°C° 0 mm 3 mps 684 mmHg 32%
    19:00 +29°C° 0.2 mm 3 mps 684 mmHg 38%
    20:00 +26°C° 0.2 mm 2 mps 684 mmHg 44%
    21:00 +24°C° 0.2 mm 2 mps 684 mmHg 49%
    22:00 +23°C° 0.1 mm 2 mps 684 mmHg 53%
    23:00 +22°C° 0.1 mm 1 mps 684 mmHg 58%

    Tomorrow, 19 June, Wednesday

    Time Temperature Precipitation Wind Pressure Humidity
    00:00 +21°C° 0.1 mm 1 mps 684 mmHg 62%
    01:00 +21°C° 0.1 mm 1 mps 684 mmHg 63%
    02:00 +21°C° 0.1 mm 1 mps 684 mmHg 64%
    03:00 +21°C° 0.1 mm 1 mps 683 mmHg 64%
    04:00 +21°C° 0.1 mm 1 mps 684 mmHg 63%
    05:00 +22°C° 0.1 mm 1 mps 684 mmHg 61%
    06:00 +23°C° 0.1 mm 1 mps 684 mmHg 59%
    07:00 +24°C° 0 mm 1 mps 684 mmHg 54%
    08:00 +26°C° 0 mm 1 mps 684 mmHg 49%
    09:00 +27°C° 0 mm 1 mps 684 mmHg 44%
    10:00 +29°C° 0.1 mm 1 mps 684 mmHg 40%
    11:00 +30°C° 0.1 mm 1 mps 684 mmHg 36%
    12:00 +32°C° 0.1 mm 1 mps 684 mmHg 32%
    13:00 +32°C° 0.1 mm 1 mps 684 mmHg 30%
    14:00 +33°C° 0.1 mm 1 mps 684 mmHg 28%
    15:00 +34°C° 0.1 mm 1 mps 684 mmHg 25%
    16:00 +34°C° 0 mm 2 mps 684 mmHg 28%
    17:00 +33°C° 0 mm 3 mps 684 mmHg 30%
    18:00 +33°C° 0 mm 4 mps 684 mmHg 33%
    19:00 +30°C° 0 mm 3 mps 684 mmHg 37%
    20:00 +28°C° 0 mm 3 mps 685 mmHg 41%
    21:00 +26°C° 0 mm 2 mps 685 mmHg 45%
    22:00 +25°C° 0.1 mm 2 mps 685 mmHg 48%
    23:00 +24°C° 0.1 mm 2 mps 684 mmHg 52%

    Day after tomorrow, 20 June, Thursday

    Time Temperature Precipitation Wind Pressure Humidity
    00:00 +23°C° 0.1 mm 2 mps 684 mmHg 55%
    01:00 +23°C° 0 mm 1 mps 684 mmHg 57%
    02:00 +22°C° 0 mm 1 mps 684 mmHg 58%
    03:00 +21°C° 0 mm 1 mps 683 mmHg 60%
    04:00 +22°C° 0 mm 1 mps 684 mmHg 58%
    05:00 +23°C° 0 mm 1 mps 684 mmHg 56%
    06:00 +24°C° 0 mm 1 mps 684 mmHg 53%
    07:00 +25°C° 0 mm 1 mps 684 mmHg 49%
    08:00 +27°C° 0 mm 1 mps 684 mmHg 44%
    09:00 +29°C° 0 mm 1 mps 684 mmHg 40%
    10:00 +30°C° 0.1 mm 1 mps 684 mmHg 36%
    11:00 +31°C° 0.1 mm 2 mps 684 mmHg 33%
    12:00 +34°C° 0.1 mm 2 mps 684 mmHg 29%
    13:00 +34°C° 0.1 mm 2 mps 684 mmHg 27%
    14:00 +35°C° 0.1 mm 3 mps 684 mmHg 25%
    15:00 +36°C° 0.1 mm 3 mps 683 mmHg 22%
    16:00 +35°C° 0 mm 4 mps 683 mmHg 26%
    17:00 +34°C° 0 mm 4 mps 683 mmHg 29%
    18:00 +33°C° 0 mm 5 mps 683 mmHg 32%
    19:00 +30°C° 0.1 mm 4 mps 683 mmHg 37%
    20:00 +28°C° 0.1 mm 4 mps 683 mmHg 42%
    21:00 +26°C° 0.1 mm 3 mps 683 mmHg 47%
    22:00 +25°C° 0.2 mm 3 mps 683 mmHg 52%
    23:00 +24°C° 0.2 mm 2 mps 683 mmHg 56%

    21 June, Friday

    Time Temperature Precipitation Wind Pressure Humidity
    00:00 +21°C° 0.2 mm 2 mps 683 mmHg 61%
    01:00 +21°C° 0.6 mm 2 mps 683 mmHg 64%
    02:00 +21°C° 0.6 mm 1 mps 683 mmHg 67%
    03:00 +21°C° 0.6 mm 1 mps 682 mmHg 70%
    04:00 +21°C° 0.3 mm 1 mps 683 mmHg 68%
    05:00 +22°C° 0.3 mm 1 mps 683 mmHg 66%
    06:00 +23°C° 0.3 mm 1 mps 683 mmHg 64%
    07:00 +24°C° 0.2 mm 1 mps 683 mmHg 58%
    08:00 +26°C° 0.2 mm 1 mps 683 mmHg 53%
    09:00 +28°C° 0.2 mm 1 mps 683 mmHg 47%
    10:00 +29°C° 0.2 mm 1 mps 683 mmHg 43%
    11:00 +31°C° 0.2 mm 1 mps 683 mmHg 38%
    12:00 +32°C° 0.2 mm 1 mps 683 mmHg 33%
    13:00 +34°C° 0.1 mm 2 mps 683 mmHg 31%
    14:00 +35°C° 0.1 mm 2 mps 683 mmHg 29%
    15:00 +35°C° 0.1 mm 2 mps 683 mmHg 27%
    16:00 +33°C° 0.7 mm 3 mps 683 mmHg 36%
    17:00 +29°C° 0.7 mm 4 mps 683 mmHg 46%
    18:00 +26°C° 0.7 mm 4 mps 683 mmHg 55%
    19:00 +25°C° 0.3 mm 3 mps 684 mmHg 58%
    20:00 +24°C° 0.3 mm 2 mps 684 mmHg 62%
    21:00 +23°C° 0.3 mm 1 mps 685 mmHg 65%
    22:00 +22°C° 0.1 mm 1 mps 685 mmHg 65%
    23:00 +22°C° 0.1 mm 1 mps 684 mmHg 65%

    22 June, Saturday

    Time Temperature Precipitation Wind Pressure Humidity
    00:00 +21°C° 0.1 mm 2 mps 684 mmHg 65%
    01:00 +20°C° 0 mm 2 mps 684 mmHg 65%
    02:00 +20°C° 0 mm 2 mps 684 mmHg 65%
    03:00 +20°C° 0 mm 1 mps 684 mmHg 65%
    04:00 +21°C° 0 mm 1 mps 684 mmHg 64%
    05:00 +22°C° 0 mm 1 mps 685 mmHg 62%
    06:00 +22°C° 0 mm 1 mps 685 mmHg 60%
    07:00 +24°C° 0 mm 1 mps 685 mmHg 55%
    08:00 +26°C° 0 mm 1 mps 686 mmHg 49%
    09:00 +28°C° 0 mm 1 mps 686 mmHg 44%
    10:00 +29°C° 0 mm 1 mps 686 mmHg 40%
    11:00 +30°C° 0 mm 2 mps 686 mmHg 37%
    12:00 +32°C° 0 mm 2 mps 686 mmHg 33%
    13:00 +34°C° 0 mm 2 mps 686 mmHg 31%
    14:00 +34°C° 0 mm 2 mps 686 mmHg 29%
    15:00 +35°C° 0 mm 2 mps 686 mmHg 27%
    16:00 +35°C° 0 mm 2 mps 686 mmHg 28%
    17:00 +35°C° 0 mm 2 mps 686 mmHg 29%
    18:00 +34°C° 0 mm 3 mps 685 mmHg 31%
    19:00 +31°C° 0 mm 3 mps 686 mmHg 36%
    20:00 +29°C° 0 mm 3 mps 686 mmHg 42%
    21:00 +27°C° 0 mm 4 mps 686 mmHg 48%
    22:00 +26°C° 0.2 mm 3 mps 686 mmHg 51%
    23:00 +25°C° 0.2 mm 2 mps 686 mmHg 54%

    23 June, Sunday

    Time Temperature Precipitation Wind Pressure Humidity
    00:00 +24°C° 0.2 mm 2 mps 686 mmHg 57%
    01:00 +23°C° 0.1 mm 2 mps 686 mmHg 59%
    02:00 +23°C° 0.1 mm 1 mps 686 mmHg 61%
    03:00 +22°C° 0.1 mm 1 mps 686 mmHg 63%
    04:00 +23°C° 0 mm 1 mps 686 mmHg 61%
    05:00 +24°C° 0 mm 1 mps 686 mmHg 59%
    06:00 +24°C° 0 mm 1 mps 686 mmHg 57%
    07:00 +26°C° 0 mm 1 mps 686 mmHg 52%
    08:00 +28°C° 0 mm 1 mps 687 mmHg 47%
    09:00 +30°C° 0 mm 1 mps 687 mmHg 42%
    10:00 +31°C° 0.1 mm 1 mps 687 mmHg 38%
    11:00 +34°C° 0.1 mm 2 mps 687 mmHg 35%
    12:00 +35°C° 0.1 mm 2 mps 687 mmHg 32%
    13:00 +36°C° 0.1 mm 2 mps 687 mmHg 30%
    14:00 +36°C° 0.1 mm 2 mps 686 mmHg 28%
    15:00 +37°C° 0.1 mm 2 mps 686 mmHg 26%
    16:00 +36°C° 0.1 mm 3 mps 686 mmHg 28%
    17:00 +36°C° 0.1 mm 3 mps 686 mmHg 30%
    18:00 +35°C° 0.1 mm 4 mps 686 mmHg 32%
    19:00 +33°C° 0.1 mm 4 mps 686 mmHg 39%
    20:00 +29°C° 0.1 mm 5 mps 686 mmHg 46%
    21:00 +26°C° 0.1 mm 5 mps 686 mmHg 53%
    22:00 +25°C° 0.5 mm 4 mps 686 mmHg 58%
    23:00 +24°C° 0.5 mm 3 mps 686 mmHg 63%
    Show more